Date,TemperatureHighF,TemperatureAvgF,TemperatureLowF,DewpointHighF,DewpointAvgF,DewpointLowF,HumidityHigh,HumidityAvg,HumidityLow,PressureMaxIn,PressureMinIn,WindSpeedMaxMPH,WindSpeedAvgMPH,GustSpeedMaxMPH,PrecipitationSumIn
2013-1-1,70.2,69.1,67.8,47.2,46.4,45.2,46,44,44,30.06,29.91,9,6,15,0.00
2013-1-2,73.6,70.6,66.2,50.4,48.6,45.4,50,46,43,29.97,29.85,7,4,11,0.00
2013-1-3,72.9,70.9,68.9,53.9,50.7,47.5,58,49,44,30.06,29.97,8,4,9,0.00
2013-1-4,73.6,71.0,68.4,49.9,48.0,46.0,47,44,43,30.12,30.03,9,5,11,0.00
2013-1-5,76.6,73.0,68.7,51.7,49.3,47.0,49,43,40,30.18,30.06,8,4,11,0.00
2013-1-6,76.1,72.3,69.3,51.9,49.6,46.2,51,45,41,30.06,29.91,6,4,9,0.00
2013-1-7,75.2,71.7,67.1,48.5,45.8,41.2,42,40,37,29.94,29.83,9,4,12,0.00
2013-1-8,73.0,68.5,0.0,46.2,43.1,0.0,42,39,16,30.03,29.97,6,1,9,0.00
2013-1-9,74.1,71.6,67.6,50.1,48.3,45.2,46,44,43,30.06,29.97,7,4,10,0.00
2013-1-10,74.3,70.9,66.2,50.6,45.6,40.4,46,41,38,30.06,29.94,4,0,7,0.00
2013-1-11,73.4,70.9,67.1,50.6,47.6,41.6,48,44,39,30.03,29.94,6,3,9,0.00
2013-1-12,71.2,65.2,0.0,44.8,38.6,0.0,42,37,17,30.09,30.00,7,2,8,0.00
2013-1-13,71.2,68.8,66.2,44.8,43.4,40.8,42,40,39,30.06,29.94,5,2,10,0.00
2013-1-14,71.1,68.8,65.7,46.4,44.6,41.9,44,42,41,30.09,30.03,8,5,13,0.00
2013-1-15,68.0,65.6,0.0,42.0,40.3,0.0,43,40,21,30.18,30.06,11,7,20,0.00
2013-1-16,68.4,66.6,63.7,45.2,43.5,40.7,45,43,42,30.09,29.94,11,7,20,0.00
2013-1-17,68.5,67.5,65.5,51.0,49.4,47.5,56,52,47,30.09,30.00,10,6,14,0.00
2013-1-18,72.3,70.4,66.6,51.2,49.1,47.5,56,47,43,30.09,30.00,8,3,11,0.00
2013-1-19,76.3,71.9,66.7,50.8,48.3,44.6,54,43,40,30.12,30.00,6,2,8,0.00
2013-1-20,77.2,74.1,69.6,50.9,48.9,44.9,44,41,40,30.03,29.91,6,2,9,0.00
2013-1-21,77.0,74.0,68.5,50.7,48.7,44.8,49,41,37,30.03,29.94,6,3,9,0.00
2013-1-22,76.8,73.8,68.0,50.6,48.1,44.7,52,41,37,30.03,29.97,8,4,10,0.00
2013-1-23,77.2,74.5,70.7,52.8,49.1,46.9,51,41,37,30.12,30.03,7,1,8,0.00
2013-1-24,77.4,72.1,0.0,54.7,48.1,0.0,51,42,23,30.15,30.00,4,0,7,0.00
2013-1-25,79.5,75.5,70.9,54.1,51.0,32.0,48,42,23,30.06,29.94,4,0,9,0.00
2013-1-26,81.5,79.0,0.0,56.7,53.2,0.0,45,41,20,30.00,29.91,4,0,5,0.00
2013-1-27,82.6,78.4,74.7,56.5,53.2,51.9,45,42,38,30.06,29.97,4,2,6,0.00
2013-1-28,76.6,73.9,0.0,51.6,48.5,0.0,43,41,18,30.12,30.03,8,3,11,0.00
2013-1-29,73.2,71.3,68.5,48.3,46.5,44.4,44,41,38,30.18,30.06,10,4,13,0.00
2013-1-30,72.1,70.4,67.6,46.7,45.1,44.1,45,40,38,30.12,30.00,12,8,16,0.00
2013-1-31,71.6,69.2,0.0,48.5,46.6,0.0,45,43,42,30.06,29.97,9,6,13,0.00
2013-2-1,72.3,70.9,68.2,47.2,46.5,44.5,45,42,38,30.12,30.00,8,4,13,0.00
2013-2-2,75.7,73.5,69.3,49.6,47.6,44.9,42,40,37,30.09,29.97,8,4,13,0.00
2013-2-3,78.8,73.9,69.3,50.2,48.1,45.4,45,40,37,30.03,29.91,7,2,11,0.00
2013-2-4,80.1,74.5,70.2,51.9,49.0,43.9,43,41,37,30.00,29.88,4,0,6,0.00
2013-2-5,77.2,73.9,72.0,52.3,49.3,47.0,44,42,37,30.00,29.91,6,1,13,0.00
2013-2-6,79.9,75.0,0.0,52.0,47.6,0.0,39,37,37,30.00,29.91,5,2,8,0.00
2013-2-7,79.2,75.2,70.5,53.9,51.2,46.1,47,43,39,30.03,29.91,5,1,8,0.00
2013-2-8,79.5,75.4,68.9,52.3,49.6,46.8,48,41,37,30.00,29.88,8,5,13,0.00
2013-2-9,75.0,72.2,67.8,50.9,48.2,45.1,45,43,40,30.03,29.94,8,4,12,0.00
2013-2-10,70.9,70.1,68.7,47.8,45.7,0.0,44,42,20,30.03,29.97,7,2,8,0.00
2013-2-11,74.8,71.9,66.7,47.4,45.3,41.6,42,39,38,30.15,30.03,9,3,11,0.00
2013-2-12,72.5,70.4,68.0,46.9,45.1,44.0,42,41,38,30.15,30.03,8,6,13,0.00
2013-2-13,73.2,68.9,0.0,47.0,44.3,0.0,45,40,38,30.09,30.00,8,4,11,0.00
2013-2-14,75.6,71.8,67.5,48.3,46.3,43.5,45,40,37,30.03,29.94,8,5,12,0.00
2013-2-15,73.6,71.6,68.7,47.7,45.2,42.6,42,39,38,30.03,29.94,9,5,13,0.00
2013-2-16,76.6,73.3,68.4,51.3,48.3,44.9,45,41,37,30.03,29.94,7,4,11,0.00
2013-2-17,79.0,75.1,69.4,52.5,49.1,43.2,45,40,37,30.00,29.88,6,0,9,0.00
2013-2-18,81.9,76.5,69.3,54.7,49.6,43.1,42,39,36,30.00,29.88,5,1,11,0.00
2013-2-19,80.1,76.7,71.6,51.4,48.6,44.5,38,37,37,29.97,29.85,9,4,12,0.00
2013-2-20,76.3,73.2,67.6,48.0,46.0,41.6,39,38,37,30.00,29.85,9,3,13,0.00
2013-2-21,75.0,72.3,68.0,48.0,46.2,42.0,42,40,38,30.03,29.88,8,2,11,0.00
2013-2-22,71.6,68.8,66.4,46.6,43.0,41.0,44,39,39,30.06,29.94,3,0,5,0.00
2013-2-24,74.8,71.0,0.0,49.9,46.2,0.0,44,40,38,30.00,29.85,10,6,17,0.00
2013-2-25,73.8,70.4,67.5,46.5,44.3,41.5,42,39,38,30.06,29.91,11,7,17,0.00
2013-2-26,74.5,71.4,66.4,47.1,44.6,40.5,39,38,38,29.97,29.85,8,2,13,0.00
2013-2-27,75.7,72.7,68.2,47.5,45.3,0.0,39,38,15,30.06,29.94,8,4,13,0.00
2013-2-28,75.9,72.3,0.0,47.6,45.3,0.0,39,38,37,30.06,29.97,8,3,12,0.00
2013-3-1,77.4,74.3,69.4,49.0,46.8,43.2,41,38,37,30.03,29.94,11,6,18,0.00
2013-3-2,79.2,75.9,70.9,50.6,48.0,44.6,39,38,37,30.12,29.97,9,5,15,0.00
2013-3-3,80.1,75.8,69.3,52.5,48.3,43.1,42,38,37,30.03,29.91,4,0,8,0.00
2013-3-4,86.7,78.2,70.5,55.7,49.6,44.2,39,37,35,30.00,29.88,8,2,10,0.00
2013-3-5,82.0,78.8,73.2,52.8,50.4,46.3,41,37,36,30.06,29.94,6,1,9,0.00
2013-3-6,78.4,76.6,73.4,51.9,49.3,46.1,40,38,37,30.03,29.91,4,1,8,0.00
2013-3-7,79.3,76.5,73.4,53.4,50.5,46.1,44,40,37,30.00,29.91,5,1,8,0.00
2013-3-8,82.4,78.4,71.2,54.7,52.0,47.5,50,40,37,30.06,29.97,8,3,10,0.00
2013-3-9,72.3,72.3,72.3,47.2,47.2,47.2,41,41,41,30.06,30.06,2,2,5,0.00
2013-3-22,84.6,79.1,0.0,54.1,51.2,0.0,44,38,35,29.91,29.80,11,5,14,0.00
2013-3-23,80.8,76.9,70.2,55.0,49.8,44.5,42,39,36,29.94,29.85,8,3,14,0.00
2013-3-24,79.9,76.7,71.6,56.0,52.5,45.5,53,43,37,29.94,29.83,5,2,8,0.00
2013-3-25,81.3,77.7,71.8,54.7,51.2,46.7,44,40,36,29.91,29.83,4,1,6,0.00
2013-3-26,83.5,79.6,72.9,55.1,51.3,45.7,40,38,36,29.94,29.85,7,2,10,0.00
2013-3-27,84.0,81.9,74.3,54.1,52.4,46.9,38,36,36,30.00,29.88,7,4,13,0.00
2013-3-28,85.3,81.5,75.6,57.1,52.3,47.4,41,37,35,30.03,29.91,5,1,9,0.00
2013-3-29,87.1,82.1,0.0,56.6,52.9,0.0,41,36,35,30.03,29.94,6,1,9,0.00
2013-3-30,86.9,82.8,78.4,57.4,53.3,49.8,38,36,35,30.03,29.94,5,1,8,0.00
2013-3-31,85.5,82.5,0.0,56.7,53.8,0.0,43,37,35,30.03,29.91,6,2,10,0.00
2013-4-1,88.3,84.3,78.1,58.7,54.6,49.6,38,36,35,30.00,29.88,8,2,14,0.00
2013-4-2,81.3,78.1,70.9,51.7,50.2,46.7,44,38,36,29.97,29.85,9,4,14,0.00
2013-4-3,82.0,79.5,73.2,54.5,52.0,48.0,44,39,36,30.00,29.88,5,2,9,0.00
2013-4-4,83.3,79.2,74.3,55.0,51.0,46.9,40,38,36,30.00,29.85,4,2,8,0.00
2013-4-5,86.7,81.6,75.0,55.7,51.9,47.0,38,36,35,30.00,29.85,10,3,15,0.00
2013-4-6,86.2,81.1,72.7,56.1,52.2,45.5,44,37,35,29.97,29.85,10,4,14,0.00
2013-4-7,87.1,80.7,71.1,57.5,51.5,0.0,44,37,13,29.94,29.80,10,6,15,0.00
2013-4-8,81.3,76.1,68.9,53.6,50.1,46.6,45,40,36,29.91,29.80,10,7,18,0.00
2013-4-9,79.0,74.6,68.7,51.2,48.0,44.9,44,39,37,29.94,29.80,11,5,12,0.00
2013-4-10,76.3,73.2,69.1,50.1,47.5,44.9,46,40,37,29.97,29.91,9,4,15,0.00
2013-4-11,79.5,75.8,70.9,52.2,48.1,44.5,41,38,37,30.12,30.00,7,2,10,0.00
2013-4-12,80.4,75.4,69.4,51.6,47.6,0.0,42,38,17,30.47,30.39,9,6,13,0.00
2013-4-13,78.3,73.6,67.3,51.9,47.4,43.9,45,40,37,30.53,30.42,11,4,17,0.00
2013-4-14,78.8,74.9,70.0,51.2,47.6,44.0,41,38,37,30.53,30.45,10,4,15,0.00
2013-4-15,78.8,75.0,69.3,52.0,48.2,0.0,45,39,15,30.59,30.47,9,5,13,0.00
2013-4-16,79.0,74.2,68.7,52.2,47.9,44.8,44,40,37,30.62,30.47,10,5,16,0.00
2013-4-17,78.3,74.5,69.8,52.6,48.6,0.0,43,40,19,30.62,30.53,8,4,11,0.00
2013-4-18,79.2,74.6,0.0,51.4,47.8,0.0,43,38,15,30.62,30.53,8,4,11,0.00
2013-4-19,82.0,78.2,72.9,53.3,49.5,45.7,39,37,36,30.62,30.47,6,3,10,0.00
2013-4-20,73.8,73.6,73.4,46.5,46.3,46.1,38,38,38,30.53,30.50,3,1,6,0.00
2013-9-17,89.9,87.5,0.0,68.9,66.7,0.0,54,50,24,17.72,17.72,11,6,13,0.00
2013-9-18,94.4,88.1,84.1,72.5,69.2,67.3,61,54,48,17.72,17.72,9,4,16,0.40
2013-9-19,89.3,83.6,77.8,67.8,65.2,62.3,61,54,49,17.72,17.72,11,7,17,0.00
2013-9-20,87.0,82.2,75.1,64.1,61.2,56.9,53,49,46,17.72,17.72,10,6,15,0.00
2013-9-21,86.8,80.6,75.1,65.5,60.7,56.8,53,51,47,17.72,17.72,11,6,15,0.00
2013-9-22,86.8,80.6,75.1,65.5,61.2,57.5,55,52,49,17.72,17.72,10,6,15,0.00
2013-9-23,87.3,81.7,76.2,71.5,63.6,58.4,60,54,50,17.72,17.72,10,5,15,0.00
2013-9-24,82.7,81.3,80.5,65.5,64.5,63.4,59,56,52,17.72,17.72,8,4,11,0.00
2013-10-1,93.8,89.0,0.0,69.6,65.6,0.0,49,45,18,17.72,0.00,7,2,9,0.00
2013-10-2,93.8,89.3,83.6,70.0,66.6,62.8,50,47,45,17.72,17.72,6,3,8,0.00
2013-10-3,91.3,87.1,79.6,68.6,65.0,61.1,53,48,45,17.72,17.72,9,6,12,0.00
2013-10-4,89.5,85.0,78.5,66.8,63.2,59.0,52,48,46,17.72,17.72,9,6,10,0.00
2013-10-5,88.4,83.8,0.0,70.2,64.8,0.0,60,52,19,17.72,17.72,8,3,11,0.00
2013-10-6,90.7,85.3,0.0,68.4,62.7,0.0,54,46,18,17.72,17.72,8,2,10,0.00
2013-10-7,91.1,86.2,82.3,69.0,65.2,39.2,54,50,19,17.72,17.72,6,2,8,0.00
2013-10-8,82.8,82.3,81.6,59.3,58.8,58.2,45,45,45,17.72,17.72,5,2,6,0.00
2013-10-9,91.3,85.2,0.0,68.2,61.9,0.0,51,45,13,17.72,17.72,9,4,12,0.00
2013-10-10,88.8,85.2,80.0,67.3,63.5,58.6,50,48,44,17.72,17.72,7,2,10,0.00
2013-10-11,88.2,84.6,80.5,69.6,66.2,60.8,60,54,49,17.72,17.72,7,2,11,0.00
2013-10-12,87.7,85.3,81.4,68.6,66.8,61.9,60,54,49,17.72,17.72,8,2,11,0.00
2013-10-13,86.1,84.7,83.9,69.7,68.7,66.6,60,58,52,17.72,17.72,8,2,10,0.00
2013-10-14,84.6,82.3,0.0,79.1,68.3,0.0,95,61,38,17.72,17.72,10,4,40,0.98
2013-10-16,82.9,80.4,80.1,74.9,71.0,57.2,79,73,43,17.72,17.72,0,0,0,0.00
2013-10-19,88.9,85.3,80.1,66.3,64.1,33.8,57,50,15,30.02,30.02,6,3,9,0.00
2013-10-20,87.7,85.1,79.4,65.7,63.9,59.8,54,49,46,30.02,30.02,6,2,9,0.00
2013-10-21,86.8,83.7,79.1,64.1,61.1,32.0,48,47,17,30.02,29.80,6,2,9,0.00
2013-10-22,87.3,83.2,78.0,66.5,62.6,55.8,54,50,46,29.91,29.83,5,2,8,0.00
2013-10-23,87.9,83.3,78.0,64.1,60.4,55.6,48,46,44,29.88,29.80,5,1,8,0.00
2013-10-24,89.1,84.5,78.0,65.7,61.4,55.6,49,46,44,29.94,29.83,6,2,10,0.00
2013-10-25,86.8,82.2,75.1,65.8,60.8,52.9,53,48,46,29.97,29.88,5,2,7,0.00
2013-10-26,86.8,82.7,77.6,67.9,65.0,58.3,68,55,49,30.00,29.88,6,3,8,0.00
2013-10-27,85.5,82.1,77.4,69.4,63.8,56.6,66,54,48,29.94,29.83,5,1,9,0.00
2013-10-28,85.5,82.6,77.1,69.9,63.0,58.8,63,52,47,29.91,29.85,4,0,6,0.00
2013-10-29,83.2,81.8,79.2,71.3,65.9,57.9,68,59,48,29.94,29.85,7,2,9,0.00
2013-10-30,81.0,79.4,77.4,68.3,64.7,60.3,67,60,53,29.97,29.88,8,3,15,0.51
2013-10-31,81.2,79.6,76.5,68.5,66.8,65.5,76,65,59,29.97,29.88,9,6,14,0.00
2013-11-1,84.6,82.0,78.0,66.9,65.1,63.4,67,56,51,29.97,29.85,8,5,13,0.00
2013-11-2,84.8,82.8,79.1,66.3,64.5,63.7,61,54,51,29.94,29.83,8,4,11,0.00
2013-11-3,81.2,80.8,80.0,68.7,64.8,61.6,66,58,52,29.88,29.74,9,5,13,0.00
2013-11-4,84.5,80.4,75.5,63.4,61.6,58.4,63,53,47,29.88,29.80,8,4,10,0.00
2013-11-10,84.8,82.9,80.0,63.6,61.7,35.6,51,49,20,30.00,29.94,7,3,10,0.00
2013-11-11,85.2,81.8,77.1,64.0,60.9,56.5,52,49,47,30.00,29.88,5,2,9,0.00
2013-11-12,83.7,80.4,76.2,63.2,60.7,56.2,53,51,49,29.97,29.85,7,1,8,0.00
2013-11-13,83.6,80.3,75.5,71.3,66.8,55.3,74,63,49,29.94,29.83,6,2,9,0.00
2013-11-14,85.7,82.3,78.3,71.6,69.6,66.2,76,65,59,29.97,29.85,5,1,8,0.00
2013-11-15,84.3,82.5,79.2,68.3,65.3,63.7,62,56,52,29.91,29.77,8,3,10,0.00
2013-11-16,85.7,83.1,79.4,67.9,65.1,62.5,61,54,51,29.91,29.80,7,2,9,0.00
2013-11-17,84.1,82.3,79.2,68.1,64.6,62.2,60,55,51,30.00,29.88,6,3,8,0.00
2013-11-18,86.2,82.1,78.2,64.6,58.4,33.8,51,46,19,30.00,29.91,4,1,5,0.00
2013-11-19,83.2,79.3,0.0,62.6,59.9,0.0,54,51,49,29.94,29.83,5,3,9,0.00
2013-11-20,81.0,77.5,72.4,61.3,58.1,54.8,55,51,48,29.94,29.83,8,3,13,0.00
2013-11-21,78.9,77.0,74.2,59.0,56.9,56.0,53,50,48,29.97,29.85,10,4,14,0.00
2013-11-22,79.8,77.1,73.5,60.2,58.3,56.3,55,52,48,30.00,29.91,8,4,12,0.00
2013-11-23,82.0,78.4,74.0,61.3,58.8,35.6,58,51,19,30.00,29.91,7,3,10,0.00
2013-11-24,79.6,78.0,76.0,62.5,59.9,39.2,61,54,25,30.03,29.94,5,2,9,0.00
2013-11-25,78.6,76.1,73.5,58.3,56.6,33.8,56,51,20,30.09,30.00,11,6,16,0.00
2013-11-26,73.5,73.4,73.3,57.0,56.4,56.0,56,55,54,30.03,30.00,10,8,15,0.00
2013-11-29,79.1,78.5,77.4,63.3,61.4,60.2,61,55,53,30.03,29.94,7,4,11,0.00
2013-11-30,80.5,78.3,75.1,64.0,62.3,60.7,65,58,53,30.06,29.94,9,5,13,0.00
2013-12-1,77.1,76.6,75.6,61.9,59.9,58.1,61,56,53,30.09,30.00,8,5,13,0.00
2013-12-2,78.3,76.9,74.4,59.5,57.9,56.3,54,52,48,30.03,29.88,5,1,8,0.00
2013-12-3,82.7,78.2,75.1,62.3,58.0,53.6,52,50,46,29.91,29.80,8,2,11,0.00
2013-12-4,82.3,78.6,75.1,61.9,59.1,56.4,58,51,47,29.97,29.88,7,3,11,0.00
2013-12-5,80.3,77.9,75.1,60.1,58.4,53.4,54,51,46,30.00,29.91,7,3,10,0.00
2013-12-6,76.4,75.4,74.2,58.0,57.1,55.7,56,53,51,30.06,29.97,8,4,13,0.00
2013-12-7,76.4,74.1,71.5,57.2,55.6,53.6,54,52,49,30.12,30.00,8,3,13,0.00
2013-12-8,73.3,71.4,69.7,54.7,52.0,50.3,53,50,49,30.09,30.06,5,2,8,0.00
2013-12-9,73.7,72.1,69.3,55.5,54.0,50.3,56,53,50,30.09,30.00,11,5,15,0.00
2013-12-10,75.5,72.8,69.7,56.8,54.8,52.8,56,53,51,30.09,29.97,10,4,13,0.00
2013-12-11,72.0,71.3,70.1,58.9,57.9,54.8,65,62,58,30.12,30.03,9,5,12,0.00
2013-12-12,73.5,72.0,70.8,61.6,60.1,58.9,69,66,63,30.12,30.03,9,5,14,0.00
2013-12-13,75.8,73.1,71.1,60.4,57.6,54.1,67,58,49,30.09,29.97,9,5,13,0.00
2013-12-14,78.0,74.9,71.1,57.3,55.6,53.4,55,51,48,30.06,29.94,11,5,15,0.00
2013-12-15,77.1,74.1,71.5,57.7,55.7,52.9,56,52,49,30.00,29.91,10,5,13,0.00
2013-12-16,76.9,74.7,71.0,58.1,57.5,56.3,62,55,52,30.06,29.97,9,6,14,0.00
2013-12-17,78.2,75.1,70.8,58.0,56.1,54.0,56,51,48,30.06,29.94,8,4,13,0.00
2013-12-18,79.6,75.2,70.1,61.8,56.1,49.5,55,51,48,30.03,29.88,4,1,6,0.00
2013-12-19,82.5,78.6,72.6,59.7,56.4,51.7,55,47,45,29.97,29.83,7,3,11,0.00
2013-12-20,74.9,73.5,71.1,60.2,55.7,53.2,62,54,52,29.94,29.83,10,6,15,0.00
2013-12-21,70.4,68.6,67.0,52.6,49.2,46.7,53,50,48,30.00,29.94,4,2,8,0.00
2013-12-22,72.6,70.0,66.6,53.9,51.4,48.0,54,51,49,30.06,29.97,10,4,15,0.00
2013-12-23,75.5,72.8,68.6,57.4,55.7,54.3,64,55,51,30.09,30.00,10,6,13,0.00
2013-12-24,75.8,73.0,69.0,57.4,56.4,55.3,63,56,52,30.09,30.00,8,5,13,0.00
2013-12-25,75.1,72.4,68.1,56.4,54.3,51.1,56,53,51,30.09,29.94,8,4,12,0.00
2013-12-26,75.1,72.3,67.4,56.2,54.2,50.0,57,53,51,30.03,29.91,7,4,13,0.00
2013-12-27,75.8,73.1,69.7,57.1,56.3,55.1,63,56,52,30.03,29.91,9,5,13,0.00
2013-12-28,76.4,73.2,69.3,57.6,55.1,51.5,56,53,51,30.03,29.91,8,4,11,0.00
2013-12-29,77.3,73.7,68.8,57.7,53.9,49.6,61,50,46,29.97,29.85,7,2,9,0.00
2013-12-30,76.2,73.6,70.1,56.7,54.7,52.7,56,51,49,30.06,29.97,9,4,13,0.00
2013-12-31,76.4,73.7,70.1,57.6,55.6,53.3,57,53,51,30.06,29.97,8,5,13,0.00
2014-1-1,76.7,73.9,69.5,57.3,54.6,52.2,56,51,49,30.06,29.91,7,4,10,0.00
2014-1-2,76.0,72.4,70.1,56.7,54.5,52.3,55,53,51,30.03,29.91,9,6,14,0.00